Location: Treviso
(45.6669°N, 12.2430°E)
Time: 09:02:56
(UTC+02:00)

ISS - Pass Details

Date: 27 May 2023
Orbit: 412 x 419 km, 51.6° (Epoch: 30 May)

Event Time Altitude Azimuth Distance (km) Brightness Sun altitude
Rises 21:58:43 0° 297° (WNW) 2,356 1.6 -10.4°
Reaches altitude 10° 22:00:49 10° 296° (WNW) 1,492 0.3 -10.6°
Maximum altitude 22:04:09 76° 212° (SSW) 433 -3.8 -11.0°
Enters shadow 22:06:29 18° 127° (SE) 1,087 -2.3 -11.3°
